Central Park, NY

5:46 AM EDT on August 18, 2017 (GMT -0400)
Central Park

Weather History for KNYC - May, 2013

Change the Weather History Date:

Tuesday, May 21, 2013

  Actual Average Record
Temperature  
Mean Temperature 77 °F 64 °F  
Max Temperature 86 °F 72 °F 93 °F (1996)
Min Temperature 68 °F 55 °F 40 °F (1907)
Degree Days  
Heating Degree Days 0 3  
Month to date heating degree days 99 112  
Since 1 July heating degree days 4589 4705  
Cooling Degree Days 12 2  
Month to date cooling degree days 27 28  
Year to date cooling degree days 29 40  
Growing Degree Days 28 (Base 50)    
Moisture  
Dew Point 65 °F    
Average Humidity 70    
Maximum Humidity 84    
Minimum Humidity 55    
Precipitation  
Precipitation 0.00 in 0.14 in 1.94 in (1883)
Month to date precipitation 5.23 2.70  
Year to date precipitation 16.45 18.30  
Snow  
Snow 0.00 in 0.00 in 0.00 in (2002)
Month to date snowfall 0.0 0.0  
Since 1 July snowfall 26.1 25.8  
Snow Depth 0.00 in    
Sea Level Pressure  
Sea Level Pressure 29.91 in    
Wind  
Wind Speed 5 mph (SW)    
Max Wind Speed 13 mph    
Max Gust Speed 22 mph    
Visibility 8 miles    
Events      
T = Trace of Precipitation, MM = Missing Value Source: NWS Daily Summary

Daily Weather History Graph

Daily Weather History Graph

Search for Another Location

Airport or City:

Trip Planner

Search our weather history database for the weather conditions in past years. The results will help you decide how hot, cold, wet, or windy it might be!

Date:

Astronomy

May. 21, 2013 Rise Set
Actual Time 5:33 AM EDT 8:12 PM EDT
Civil Twilight 5:01 AM EDT 8:44 PM EDT
Nautical Twilight 4:21 AM EDT 9:23 PM EDT
Astronomical Twilight 3:37 AM EDT 10:08 PM EDT
Moon 4:21 PM EDT (5/21) 3:01 AM EDT (5/21)
Length of Visible Light 15h 42m
Length of Day
14h 38m
Waxing Gibbous, 84% of the Moon is Illuminated
May 21
Waxing Gibbous
May 25
Full
May 31
Last Quarter
Jun 8
New
Jun 16
First Quarter

Hourly Weather History & Observations

Time (EDT) Temp. Heat Index Dew Point Humidity Pressure Visibility Wind Dir Wind Speed Gust Speed Precip Events Conditions
12:51 AM 71.1 °F - 64.0 °F 78% 29.96 in 8.0 mi Calm Calm - N/A   Clear
1:51 AM 70.0 °F - 64.0 °F 81% 29.97 in 8.0 mi Variable 3.5 mph - N/A   Clear
2:51 AM 70.0 °F - 64.0 °F 81% 29.96 in 8.0 mi Variable 4.6 mph - N/A   Clear
3:51 AM 69.1 °F - 64.0 °F 84% 29.94 in 7.0 mi SW 3.5 mph - N/A   Clear
4:51 AM 69.1 °F - 64.0 °F 84% 29.94 in 7.0 mi Variable 3.5 mph - N/A   Clear
5:51 AM 69.1 °F - 64.9 °F 87% 29.95 in 4.0 mi Variable 3.5 mph - N/A   Clear
6:51 AM 69.1 °F - 64.9 °F 87% 29.97 in 4.0 mi Variable 6.9 mph - N/A   Clear
7:51 AM 69.1 °F - 64.9 °F 87% 29.97 in 4.0 mi West 10.4 mph - N/A   Partly Cloudy
8:51 AM 71.1 °F - 66.0 °F 84% 29.96 in 4.0 mi WSW 9.2 mph - N/A   Haze
9:51 AM 73.9 °F - 66.0 °F 76% 29.96 in 5.0 mi West 3.5 mph - N/A   Haze
10:51 AM 78.1 °F - 68.0 °F 71% 29.94 in 6.0 mi North - - N/A   Haze
11:51 AM 82.0 °F 84.9 °F 68.0 °F 62% 29.92 in 8.0 mi Variable 3.5 mph - N/A   Clear
12:51 PM 84.0 °F 86.5 °F 66.9 °F 56% 29.91 in 9.0 mi SW 6.9 mph - N/A   Clear
1:51 PM 84.9 °F 87.1 °F 66.0 °F 53% 29.89 in 10.0 mi North - - N/A   Clear
2:51 PM 86.0 °F 89.4 °F 68.0 °F 55% 29.88 in 9.0 mi North - - N/A   Clear
3:51 PM 84.0 °F 86.3 °F 66.0 °F 55% 29.86 in 8.0 mi South 8.1 mph - N/A   Clear
4:51 PM 84.0 °F 86.3 °F 66.0 °F 55% 29.85 in 9.0 mi Variable 5.8 mph - N/A   Clear
5:51 PM 82.0 °F 84.5 °F 66.9 °F 60% 29.84 in 9.0 mi Calm Calm - N/A   Clear
6:51 PM 82.0 °F 83.8 °F 64.9 °F 56% 29.85 in 9.0 mi Variable 5.8 mph - N/A   Clear
7:51 PM 81.0 °F 82.7 °F 64.9 °F 58% 29.86 in 9.0 mi Variable 5.8 mph - N/A   Clear
8:51 PM 79.0 °F - 64.9 °F 62% 29.86 in 10.0 mi Variable 4.6 mph - N/A   Clear
9:51 PM 77.0 °F - 64.9 °F 66% 29.85 in 9.0 mi WSW 9.2 mph - N/A   Clear
10:51 PM 77.0 °F - 64.9 °F 66% 29.85 in 10.0 mi Variable 5.8 mph 18.4 mph N/A   Clear
11:51 PM 75.9 °F - 64.9 °F 69% 29.85 in 10.0 mi Variable 5.8 mph - N/A   Clear